Location: Newark
(47.5333°N, 8.7000°E)
Time: 18:41:58
(UTC+00:00)

BEESAT 3 - Pass Details

Date: 26 November 2020
Orbit: 491 x 509 km, 64.9° (Epoch: 14 January)

Event Time Altitude Azimuth Distance (km) Brightness Sun altitude
Exits shadow 04:08:01 45° 110° (ESE) 705 ? -26.1°
Drops below altitude 10° 04:11:31 10° 48° (NE) 1,737 ? -25.5°
Sets 04:13:45 0° 42° (NE) 2,627 ? -25.1°
